Location: Bjelajci
(45.0103°N, 16.1758°E)
Time: 04:11:52
(UTC+00:00)

Cosmos 405 Rocket - Pass Details

Date: 14 July 2020
Orbit: 489 x 555 km, 81.3° (Epoch: 11 August)

Event Time Altitude Azimuth Distance (km) Brightness Sun altitude
Exits shadow 00:52:39 36° 260° (W) 820 3.4 -18.7°
Maximum altitude 00:53:16 39° 285° (WNW) 774 3.4 -18.6°
Drops below altitude 10° 00:56:51 10° 356° (N) 1,724 6.2 -18.3°
Sets 00:59:03 0° 4° (N) 2,604 7.5 -18.2°
